User: anonymous   Login
Location: Theydon Bois
(51.6750°N, 0.1050°E)
Time: 14:35:42
(UTC+01:00)
Language:

Cosmos 2154 Rocket - Orbit

View from above orbital plane
View from above orbital plane
View from above satellite
View from above satellite

Ground track
Ground track

The orbit data is extracted from the following two-line orbital elements,

1 21667U 91059B   18170.91065693 +.00000060 +00000-0 +47274-4 0  9996
2 21667 082.9072 095.3025 0019807 312.0428 114.3684 13.75098220345962
Epoch (UTC): 19 June 2018 21:51:20
Eccentricity: 0.0019807
inclination: 82.9072°
perigee height: 967 km
apogee height: 996 km
right ascension of ascending node: 95.3025°
argument of perigee: 312.0428°
revolutions per day: 13.75098220
mean anomaly at epoch: 114.3684°
orbit number at epoch: 34596

The dashed part of the orbit path shows where the satellite is in the earth's shadow,  

DLR